"Sample Date","Sample Time","Sample Value","Units","Flow Rate","Sample Interval","Number Channels","Micron Size 0","Counts/Channel 0","Micron Size 1","Counts/Channel 1","Micron Size 2","Counts/Channel 2","Micron Size 3","Counts/Channel 3","Micron Size 4","Counts/Channel 4","Micron Size 5","Counts/Channel 5","Micron Size 6","Counts/Channel 6","Micron Size 7","Counts/Channel 7","Micron Size 8","Counts/Channel 8","Micron Size 9","Counts/Channel 9","Micron Size 10","Counts/Channel 10","Micron Size 11","Counts/Channel 11","Micron Size 12","Counts/Channel 12","Micron Size 13","Counts/Channel 13","Micron Size 14","Counts/Channel 14","Micron Size 15","Counts/Channel 15","Micron Size 16","Counts/Channel 16","Micron Size 17","Counts/Channel 17","Micron Size 18","Counts/Channel 18","Micron Size 19","Counts/Channel 19","Micron Size 20","Counts/Channel 20","Micron Size 21","Counts/Channel 21","Micron Size 22","Counts/Channel 22","Micron Size 23","Counts/Channel 23","Micron Size 24","Counts/Channel 24","Micron Size 25","Counts/Channel 25","Micron Size 26","Counts/Channel 26","Micron Size 27","Counts/Channel 27","Micron Size 28","Counts/Channel 28","Micron Size 29","Counts/Channel 29","Micron Size 30","Counts/Channel 30","Micron Size 31","Counts/Channel 31"
"04/04/08","21:00:04",175483.000,"cc",28359.988,6.00,6,0.100,151228.000,0.200,19573.000,0.300,2984.000,0.500,1328.000,1.000,370.000,5.000,0
"04/04/08","21:00:10",234875.000,"cc",28290.609,6.00,6,0.100,199801.000,0.200,28261.000,0.300,4318.000,0.500,1916.000,1.000,579.000,5.000,0
"04/04/08","21:00:16",194636.000,"cc",28271.889,6.00,6,0.100,166863.000,0.200,22426.000,0.300,3494.000,0.500,1407.000,1.000,446.000,5.000,0
"04/04/08","21:00:22",220134.000,"cc",28289.135,6.00,6,0.100,187135.000,0.200,27077.000,0.300,4153.000,0.500,1374.000,1.000,395.000,5.000,0
"04/04/08","21:00:28",153295.000,"cc",28356.541,6.00,6,0.100,131607.000,0.200,17478.000,0.300,2869.000,0.500,1054.000,1.000,287.000,5.000,0
"04/04/08","21:00:34",276613.000,"cc",28304.287,6.00,6,0.100,233814.000,0.200,36078.000,0.300,4936.000,0.500,1443.000,1.000,342.000,5.000,0
"04/04/08","21:00:40",252435.000,"cc",28282.289,6.00,6,0.100,210231.000,0.200,34606.000,0.300,5799.000,0.500,1487.000,1.000,312.000,5.000,0
"04/04/08","21:00:46",284936.000,"cc",28349.277,6.00,6,0.100,239092.000,0.200,38638.000,0.300,5452.000,0.500,1431.000,1.000,323.000,5.000,0
"04/04/08","21:00:52",340416.000,"cc",28350.928,6.00,6,0.100,279269.000,0.200,50783.000,0.300,8219.000,0.500,1831.000,1.000,314.000,5.000,0
"04/04/08","21:00:58",277216.000,"cc",28282.701,6.00,6,0.100,228716.000,0.200,39358.000,0.300,6861.000,0.500,1852.000,1.000,429.000,5.000,0
"04/04/08","21:01:04",297446.000,"cc",28316.404,6.00,6,0.100,250183.000,0.200,39060.000,0.300,5641.000,0.500,2023.000,1.000,539.000,5.000,0
"04/04/08","21:01:10",189609.000,"cc",28287.803,6.00,6,0.100,160480.000,0.200,23168.000,0.300,3877.000,0.500,1615.000,1.000,469.000,5.000,0
"04/04/08","21:01:16",298270.000,"cc",28293.133,6.00,6,0.100,242704.000,0.200,44347.000,0.300,8309.000,0.500,2378.000,1.000,532.000,5.000,0
"04/04/08","21:01:22",279584.000,"cc",28364.018,6.00,6,0.100,229914.000,0.200,39654.000,0.300,7230.000,0.500,2234.000,1.000,552.000,5.000,0
"04/04/08","21:01:28",301989.000,"cc",28304.625,6.00,6,0.100,249751.000,0.200,42469.000,0.300,6990.000,0.500,2188.000,1.000,591.000,5.000,0
"04/04/08","21:01:34",261666.000,"cc",28328.961,6.00,6,0.100,215044.000,0.200,37083.000,0.300,7129.000,0.500,2005.000,1.000,405.000,5.000,0
"04/04/08","21:01:40",331840.000,"cc",28289.440,6.00,6,0.100,265634.000,0.200,52778.000,0.300,10609.000,0.500,2451.000,1.000,368.000,5.000,0
"04/04/08","21:01:46",277922.000,"cc",28316.361,6.00,6,0.100,233687.000,0.200,36670.000,0.300,5456.000,0.500,1727.000,1.000,382.000,5.000,0
"04/04/08","21:01:52",281771.000,"cc",28330.299,6.00,6,0.100,239431.000,0.200,35655.000,0.300,4760.000,0.500,1553.000,1.000,372.000,5.000,0
"04/04/08","21:01:58",298867.000,"cc",28323.955,6.00,6,0.100,254345.000,0.200,37679.000,0.300,4710.000,0.500,1641.000,1.000,492.000,5.000,0
"04/04/08","21:02:04",363071.000,"cc",28285.772,6.00,6,0.100,303662.000,0.200,50526.000,0.300,6506.000,0.500,1869.000,1.000,508.000,5.000,0
"04/04/08","21:02:10",312880.000,"cc",28306.668,6.00,6,0.100,263328.000,0.200,41477.000,0.300,5831.000,0.500,1774.000,1.000,470.000,5.000,0
"04/04/08","21:02:16",394454.000,"cc",28355.897,6.00,6,0.100,333447.000,0.200,53813.000,0.300,5068.000,0.500,1670.000,1.000,456.000,5.000,0
"04/04/08","21:02:22",285058.000,"cc",28283.984,6.00,6,0.100,245555.000,0.200,33703.000,0.300,3715.000,0.500,1654.000,1.000,431.000,5.000,0
"04/04/08","21:02:28",229203.000,"cc",28377.643,6.00,6,0.100,199992.000,0.200,24734.000,0.300,2799.000,0.500,1265.000,1.000,413.000,5.000,0
"04/04/08","21:02:34",206342.000,"cc",28297.557,6.00,6,0.100,177710.000,0.200,23518.000,0.300,3419.000,0.500,1322.000,1.000,373.000,5.000,0
"04/04/08","21:02:40",216594.000,"cc",28297.936,6.00,6,0.100,185094.000,0.200,25499.000,0.300,3962.000,0.500,1614.000,1.000,425.000,5.000,0
"04/04/08","21:02:46",142865.000,"cc",28344.988,6.00,6,0.100,125509.000,0.200,13779.000,0.300,1982.000,0.500,1217.000,1.000,378.000,5.000,0
"04/04/08","21:02:52",234203.000,"cc",28292.869,6.00,6,0.100,200954.000,0.200,26536.000,0.300,3777.000,0.500,2182.000,1.000,754.000,5.000,0
"04/04/08","21:02:58",145887.000,"cc",28375.766,6.00,6,0.100,125785.000,0.200,15092.000,0.300,2705.000,0.500,1716.000,1.000,589.000,5.000,0
"04/04/08","21:03:04",97741.000,"cc",28239.666,6.00,6,0.100,84650.000,0.200,9380.000,0.300,1943.000,0.500,1350.000,1.000,418.000,5.000,0
"04/04/08","21:03:10",98625.000,"cc",28248.734,6.00,6,0.100,84125.000,0.200,10639.000,0.300,2293.000,0.500,1197.000,1.000,371.000,5.000,0
"04/04/08","21:03:16",130081.000,"cc",28282.408,6.00,6,0.100,111847.000,0.200,13796.000,0.300,2644.000,0.500,1371.000,1.000,423.000,5.000,0
"04/04/08","21:03:22",78800.000,"cc",28306.318,6.00,6,0.100,68115.000,0.200,7472.000,0.300,1782.000,0.500,1077.000,1.000,354.000,5.000,0
"04/04/08","21:03:28",103860.000,"cc",28325.688,6.00,6,0.100,87923.000,0.200,11247.000,0.300,2720.000,0.500,1535.000,1.000,435.000,5.000,0
"04/04/08","21:03:34",63704.000,"cc",28356.481,6.00,6,0.100,54769.000,0.200,5861.000,0.300,1523.000,0.500,1161.000,1.000,390.000,5.000,0
"04/04/08","21:03:40",55898.000,"cc",28321.393,6.00,6,0.100,48099.000,0.200,4829.000,0.300,1458.000,0.500,1131.000,1.000,381.000,5.000,0
"04/04/08","21:03:46",68033.000,"cc",28307.731,6.00,6,0.100,58079.000,0.200,6640.000,0.300,1747.000,0.500,1202.000,1.000,365.000,5.000,0
"04/04/08","21:03:52",83192.000,"cc",28270.186,6.00,6,0.100,70175.000,0.200,8662.000,0.300,2268.000,0.500,1571.000,1.000,516.000,5.000,0
"04/04/08","21:03:58",78661.000,"cc",28414.232,6.00,6,0.100,67036.000,0.200,7860.000,0.300,1962.000,0.500,1370.000,1.000,433.000,5.000,0
"04/04/08","21:04:04",97990.000,"cc",28330.008,6.00,6,0.100,81513.000,0.200,10662.000,0.300,3047.000,0.500,2100.000,1.000,668.000,5.000,0
"04/04/08","21:04:10",80423.000,"cc",28285.482,6.00,6,0.100,67979.000,0.200,8134.000,0.300,2175.000,0.500,1602.000,1.000,533.000,5.000,0
"04/04/08","21:04:16",72298.000,"cc",28282.633,6.00,6,0.100,61323.000,0.200,6986.000,0.300,1944.000,0.500,1509.000,1.000,536.000,5.000,0
"04/04/08","21:04:22",93619.000,"cc",28320.424,6.00,6,0.100,78780.000,0.200,9561.000,0.300,2689.000,0.500,1899.000,1.000,690.000,5.000,0
"04/04/08","21:04:28",77756.000,"cc",28325.541,6.00,6,0.100,66337.000,0.200,7418.000,0.300,1937.000,0.500,1522.000,1.000,542.000,5.000,0
"04/04/08","21:04:34",98585.000,"cc",28280.117,6.00,6,0.100,83171.000,0.200,10174.000,0.300,2719.000,0.500,1883.000,1.000,638.000,5.000,0
"04/04/08","21:04:40",47882.000,"cc",28332.734,6.00,6,0.100,41731.000,0.200,3848.000,0.300,1080.000,0.500,904.000,1.000,319.000,5.000,0
"04/04/08","21:04:46",97410.000,"cc",28314.330,6.00,6,0.100,83857.000,0.200,9471.000,0.300,2007.000,0.500,1562.000,1.000,513.000,5.000,0
"04/04/08","21:04:52",79889.000,"cc",28329.283,6.00,6,0.100,68926.000,0.200,7451.000,0.300,1824.000,0.500,1236.000,1.000,451.000,5.000,1.000
"04/04/08","21:04:58",52357.000,"cc",28259.111,6.00,6,0.100,46163.000,0.200,4127.000,0.300,973.000,0.500,805.000,1.000,289.000,5.000,0
"04/04/08","21:05:04",62353.000,"cc",28348.475,6.00,6,0.100,54467.000,0.200,5140.000,0.300,1317.000,0.500,1052.000,1.000,377.000,5.000,0
"04/04/08","21:05:10",70793.000,"cc",28315.279,6.00,6,0.100,61620.000,0.200,6237.000,0.300,1427.000,0.500,1089.000,1.000,420.000,5.000,0
"04/04/08","21:05:16",80976.000,"cc",28355.670,6.00,6,0.100,69512.000,0.200,7624.000,0.300,1845.000,0.500,1456.000,1.000,539.000,5.000,0
"04/04/08","21:05:22",65065.000,"cc",28338.203,6.00,6,0.100,55638.000,0.200,5869.000,0.300,1763.000,0.500,1329.000,1.000,466.000,5.000,0
"04/04/08","21:05:28",65407.000,"cc",28262.713,6.00,6,0.100,56523.000,0.200,5698.000,0.300,1547.000,0.500,1198.000,1.000,441.000,5.000,0
"04/04/08","21:05:34",49028.000,"cc",28368.705,6.00,6,0.100,42345.000,0.200,3958.000,0.300,1257.000,0.500,1110.000,1.000,358.000,5.000,0
"04/04/08","21:05:40",48896.000,"cc",28245.459,6.00,6,0.100,42135.000,0.200,4004.000,0.300,1286.000,0.500,1075.000,1.000,396.000,5.000,0
"04/04/08","21:05:46",38229.000,"cc",28335.242,6.00,6,0.100,33520.000,0.200,2664.000,0.300,954.000,0.500,804.000,1.000,287.000,5.000,0
"04/04/08","21:05:52",51902.000,"cc",28309.947,6.00,6,0.100,43995.000,0.200,4522.000,0.300,1635.000,0.500,1317.000,1.000,433.000,5.000,0
"04/04/08","21:05:58",40014.000,"cc",28318.912,6.00,6,0.100,34894.000,0.200,2858.000,0.300,1030.000,0.500,916.000,1.000,316.000,5.000,0
"04/04/08","21:06:04",44080.000,"cc",28422.313,6.00,6,0.100,38593.000,0.200,3276.000,0.300,1043.000,0.500,881.000,1.000,287.000,5.000,0
"04/04/08","21:06:10",53411.000,"cc",28241.285,6.00,6,0.100,46019.000,0.200,4454.000,0.300,1456.000,0.500,1104.000,1.000,378.000,5.000,0
"04/04/08","21:06:16",35398.000,"cc",28289.350,6.00,6,0.100,31717.000,0.200,2108.000,0.300,708.000,0.500,657.000,1.000,208.000,5.000,0
"04/04/08","21:06:22",42866.000,"cc",28415.211,6.00,6,0.100,37645.000,0.200,3103.000,0.300,954.000,0.500,891.000,1.000,273.000,5.000,0
"04/04/08","21:06:28",44312.000,"cc",28192.168,6.00,6,0.100,39008.000,0.200,3149.000,0.300,967.000,0.500,877.000,1.000,311.000,5.000,0
"04/04/08","21:06:34",65296.000,"cc",28376.822,6.00,6,0.100,56296.000,0.200,5520.000,0.300,1603.000,0.500,1417.000,1.000,460.000,5.000,0
"04/04/08","21:06:40",64775.000,"cc",28250.244,6.00,6,0.100,56849.000,0.200,5242.000,0.300,1273.000,0.500,1027.000,1.000,384.000,5.000,0
"04/04/08","21:06:46",42010.000,"cc",28290.541,6.00,6,0.100,37748.000,0.200,2703.000,0.300,700.000,0.500,651.000,1.000,208.000,5.000,0
"04/04/08","21:06:52",50598.000,"cc",28401.617,6.00,6,0.100,44483.000,0.200,3826.000,0.300,1066.000,0.500,885.000,1.000,338.000,5.000,0
"04/04/08","21:06:58",61894.000,"cc",28299.039,6.00,6,0.100,53749.000,0.200,5182.000,0.300,1383.000,0.500,1174.000,1.000,406.000,5.000,0
"04/04/08","21:07:04",66299.000,"cc",28255.262,6.00,6,0.100,58252.000,0.200,5449.000,0.300,1210.000,0.500,1044.000,1.000,344.000,5.000,0
"04/04/08","21:07:10",98860.000,"cc",28372.875,6.00,6,0.100,85352.000,0.200,9247.000,0.300,2028.000,0.500,1653.000,1.000,580.000,5.000,0
"04/04/08","21:07:16",101468.000,"cc",28313.260,6.00,6,0.100,87095.000,0.200,9613.000,0.300,2302.000,0.500,1787.000,1.000,671.000,5.000,0
"04/04/08","21:07:22",85960.000,"cc",28354.264,6.00,6,0.100,75482.000,0.200,7413.000,0.300,1531.000,0.500,1158.000,1.000,376.000,5.000,0
"04/04/08","21:07:28",111192.000,"cc",28271.100,6.00,6,0.100,97549.000,0.200,10065.000,0.300,1741.000,0.500,1372.000,1.000,465.000,5.000,0
"04/04/08","21:07:34",70377.000,"cc",28343.357,6.00,6,0.100,61805.000,0.200,5717.000,0.300,1311.000,0.500,1154.000,1.000,390.000,5.000,0
"04/04/08","21:07:40",105973.000,"cc",28350.127,6.00,6,0.100,91935.000,0.200,9740.000,0.300,2091.000,0.500,1625.000,1.000,582.000,5.000,0
"04/04/08","21:07:46",167122.000,"cc",28282.484,6.00,6,0.100,145616.000,0.200,17421.000,0.300,2216.000,0.500,1382.000,1.000,487.000,5.000,0
"04/04/08","21:07:52",190632.000,"cc",28303.416,6.00,6,0.100,166042.000,0.200,19928.000,0.300,2535.000,0.500,1579.000,1.000,548.000,5.000,0
"04/04/08","21:07:58",165642.000,"cc",28304.578,6.00,6,0.100,145172.000,0.200,16378.000,0.300,2217.000,0.500,1405.000,1.000,470.000,5.000,0
"04/04/08","21:08:04",114898.000,"cc",28281.631,6.00,6,0.100,101831.000,0.200,9992.000,0.300,1477.000,0.500,1170.000,1.000,428.000,5.000,0
"04/04/08","21:08:10",155041.000,"cc",28334.037,6.00,6,0.100,135909.000,0.200,15048.000,0.300,2116.000,0.500,1490.000,1.000,478.000,5.000,0
"04/04/08","21:08:16",130873.000,"cc",28288.602,6.00,6,0.100,114847.000,0.200,12257.000,0.300,1901.000,0.500,1394.000,1.000,474.000,5.000,0
"04/04/08","21:08:22",66502.000,"cc",28286.022,6.00,6,0.100,58950.000,0.200,5223.000,0.300,1068.000,0.500,942.000,1.000,319.000,5.000,0
"04/04/08","21:08:28",217504.000,"cc",28362.311,6.00,6,0.100,189108.000,0.200,23298.000,0.300,2814.000,0.500,1699.000,1.000,585.000,5.000,0
"04/04/08","21:08:34",230199.000,"cc",28371.469,6.00,6,0.100,201134.000,0.200,25240.000,0.300,2291.000,0.500,1137.000,1.000,397.000,5.000,0
"04/04/08","21:08:40",136771.000,"cc",28346.600,6.00,6,0.100,120380.000,0.200,13054.000,0.300,1734.000,0.500,1198.000,1.000,405.000,5.000,0
"04/04/08","21:08:46",132347.000,"cc",28343.877,6.00,6,0.100,116863.000,0.200,12172.000,0.300,1759.000,0.500,1155.000,1.000,398.000,5.000,0
"04/04/08","21:08:52",98705.000,"cc",28272.117,6.00,6,0.100,87603.000,0.200,8419.000,0.300,1322.000,0.500,1013.000,1.000,348.000,5.000,0
"04/04/08","21:08:58",112948.000,"cc",28298.465,6.00,6,0.100,99372.000,0.200,10292.000,0.300,1663.000,0.500,1159.000,1.000,462.000,5.000,0
"04/04/08","21:09:04",110859.000,"cc",28365.037,6.00,6,0.100,97705.000,0.200,9927.000,0.300,1623.000,0.500,1214.000,1.000,390.000,5.000,0
"04/04/08","21:09:10",55081.000,"cc",28293.652,6.00,6,0.100,49487.000,0.200,3612.000,0.300,856.000,0.500,838.000,1.000,288.000,5.000,0
"04/04/08","21:09:16",102522.000,"cc",28258.842,6.00,6,0.100,90850.000,0.200,8932.000,0.300,1344.000,0.500,1044.000,1.000,352.000,5.000,0
"04/04/08","21:09:22",100624.000,"cc",28279.861,6.00,6,0.100,88260.000,0.200,9015.000,0.300,1597.000,0.500,1305.000,1.000,447.000,5.000,0
"04/04/08","21:09:28",55562.000,"cc",28310.516,6.00,6,0.100,49356.000,0.200,4049.000,0.300,996.000,0.500,867.000,1.000,294.000,5.000,0
"04/04/08","21:09:34",72833.000,"cc",28375.662,6.00,6,0.100,63585.000,0.200,5935.000,0.300,1571.000,0.500,1275.000,1.000,467.000,5.000,0
"04/04/08","21:09:40",55933.000,"cc",28365.117,6.00,6,0.100,50166.000,0.200,3787.000,0.300,857.000,0.500,836.000,1.000,287.000,5.000,0
"04/04/08","21:09:46",59904.000,"cc",28290.395,6.00,6,0.100,52609.000,0.200,4627.000,0.300,1262.000,0.500,1081.000,1.000,325.000,5.000,0
"04/04/08","21:09:52",102887.000,"cc",28349.080,6.00,6,0.100,89410.000,0.200,9394.000,0.300,1906.000,0.500,1598.000,1.000,579.000,5.000,0
"04/04/08","21:09:58",76622.000,"cc",28271.641,6.00,6,0.100,67227.000,0.200,6395.000,0.300,1416.000,0.500,1172.000,1.000,412.000,5.000,0
"04/04/08","21:10:04",90961.000,"cc",28257.379,6.00,6,0.100,79451.000,0.200,7969.000,0.300,1734.000,0.500,1356.000,1.000,451.000,5.000,0
"04/04/08","21:10:10",86955.000,"cc",28422.606,6.00,6,0.100,76640.000,0.200,7385.000,0.300,1444.000,0.500,1117.000,1.000,369.000,5.000,0
"04/04/08","21:10:16",75790.000,"cc",28316.863,6.00,6,0.100,65807.000,0.200,6422.000,0.300,1666.000,0.500,1430.000,1.000,465.000,5.000,0
"04/04/08","21:10:22",71121.000,"cc",28276.856,6.00,6,0.100,61344.000,0.200,5998.000,0.300,1773.000,0.500,1525.000,1.000,481.000,5.000,0
"04/04/08","21:10:28",68191.000,"cc",28369.422,6.00,6,0.100,59686.000,0.200,5550.000,0.300,1417.000,0.500,1149.000,1.000,389.000,5.000,0
"04/04/08","21:10:34",74783.000,"cc",28372.799,6.00,6,0.100,65393.000,0.200,6323.000,0.300,1407.000,0.500,1251.000,1.000,409.000,5.000,0
"04/04/08","21:10:40",96701.000,"cc",28303.348,6.00,6,0.100,85145.000,0.200,8465.000,0.300,1512.000,0.500,1182.000,1.000,397.000,5.000,0
"04/04/08","21:10:46",83486.000,"cc",28238.457,6.00,6,0.100,74072.000,0.200,6874.000,0.300,1217.000,0.500,995.000,1.000,328.000,5.000,0
"04/04/08","21:10:52",84348.000,"cc",28276.629,6.00,6,0.100,74238.000,0.200,7136.000,0.300,1390.000,0.500,1150.000,1.000,434.000,5.000,0
"04/04/08","21:10:58",104755.000,"cc",28301.127,6.00,6,0.100,90368.000,0.200,9747.000,0.300,2219.000,0.500,1801.000,1.000,620.000,5.000,0
"04/04/08","21:11:04",117116.000,"cc",28312.506,6.00,6,0.100,103022.000,0.200,10884.000,0.300,1604.000,0.500,1206.000,1.000,400.000,5.000,0
"04/04/08","21:11:10",94933.000,"cc",28285.086,6.00,6,0.100,83988.000,0.200,8110.000,0.300,1367.000,0.500,1101.000,1.000,367.000,5.000,0
"04/04/08","21:11:16",245654.000,"cc",28369.525,6.00,6,0.100,214331.000,0.200,26688.000,0.300,2582.000,0.500,1542.000,1.000,511.000,5.000,0
"04/04/08","21:11:22",152907.000,"cc",28292.449,6.00,6,0.100,134647.000,0.200,14862.000,0.300,1774.000,0.500,1204.000,1.000,420.000,5.000,0
"04/04/08","21:11:28",191402.000,"cc",28305.629,6.00,6,0.100,167716.000,0.200,19528.000,0.300,2252.000,0.500,1432.000,1.000,474.000,5.000,0
"04/04/08","21:11:34",155400.000,"cc",28306.635,6.00,6,0.100,137797.000,0.200,14556.000,0.300,1644.000,0.500,1050.000,1.000,353.000,5.000,0
"04/04/08","21:11:40",192940.000,"cc",28320.486,6.00,6,0.100,170025.000,0.200,19521.000,0.300,1909.000,0.500,1095.000,1.000,390.000,5.000,0
"04/04/08","21:11:46",176462.000,"cc",28321.602,6.00,6,0.100,155776.000,0.200,17231.000,0.300,1942.000,0.500,1104.000,1.000,409.000,5.000,0
"04/04/08","21:11:52",197608.000,"cc",28335.191,6.00,6,0.100,173863.000,0.200,20063.000,0.300,2052.000,0.500,1228.000,1.000,402.000,5.000,0
"04/04/08","21:11:58",170707.000,"cc",28324.938,6.00,6,0.100,149782.000,0.200,16621.000,0.300,2282.000,0.500,1511.000,1.000,511.000,5.000,0
"04/04/08","21:12:04",227497.000,"cc",28321.504,6.00,6,0.100,198307.000,0.200,24924.000,0.300,2534.000,0.500,1329.000,1.000,403.000,5.000,0
"04/04/08","21:12:10",172392.000,"cc",28314.926,6.00,6,0.100,152540.000,0.200,16878.000,0.300,1672.000,0.500,965.000,1.000,337.000,5.000,0
"04/04/08","21:12:16",122197.000,"cc",28340.346,6.00,6,0.100,108348.000,0.200,11158.000,0.300,1389.000,0.500,952.000,1.000,350.000,5.000,0
"04/04/08","21:12:22",178541.000,"cc",28341.227,6.00,6,0.100,156708.000,0.200,18196.000,0.300,1986.000,0.500,1249.000,1.000,402.000,5.000,0
"04/04/08","21:12:28",157587.000,"cc",28303.268,6.00,6,0.100,137712.000,0.200,16027.000,0.300,2041.000,0.500,1367.000,1.000,440.000,5.000,0
"04/04/08","21:12:34",169137.000,"cc",28316.557,6.00,6,0.100,148594.000,0.200,16490.000,0.300,2040.000,0.500,1491.000,1.000,522.000,5.000,0
"04/04/08","21:12:40",156297.000,"cc",28291.813,6.00,6,0.100,137164.000,0.200,15043.000,0.300,2125.000,0.500,1482.000,1.000,483.000,5.000,0
"04/04/08","21:12:46",166561.000,"cc",28332.088,6.00,6,0.100,146641.000,0.200,16085.000,0.300,1924.000,0.500,1430.000,1.000,481.000,5.000,0
"04/04/08","21:12:52",180234.000,"cc",28371.842,6.00,6,0.100,157489.000,0.200,17975.000,0.300,2458.000,0.500,1704.000,1.000,608.000,5.000,0
"04/04/08","21:12:58",143650.000,"cc",28296.988,6.00,6,0.100,124961.000,0.200,13694.000,0.300,2466.000,0.500,1855.000,1.000,674.000,5.000,0
"04/04/08","21:13:04",141582.000,"cc",28257.738,6.00,6,0.100,122816.000,0.200,13898.000,0.300,2374.000,0.500,1877.000,1.000,617.000,5.000,0
"04/04/08","21:13:10",200251.000,"cc",28308.865,6.00,6,0.100,173700.000,0.200,20922.000,0.300,2984.000,0.500,1981.000,1.000,664.000,5.000,0
"04/04/08","21:13:16",332451.000,"cc",28411.453,6.00,6,0.100,289103.000,0.200,37962.000,0.300,3184.000,0.500,1659.000,1.000,543.000,5.000,0
"04/04/08","21:13:22",302606.000,"cc",28275.254,6.00,6,0.100,266925.000,0.200,31859.000,0.300,2286.000,0.500,1166.000,1.000,370.000,5.000,0
"04/04/08","21:13:28",249742.000,"cc",28308.807,6.00,6,0.100,222540.000,0.200,24184.000,0.300,1705.000,0.500,969.000,1.000,344.000,5.000,0
"04/04/08","21:13:34",301425.000,"cc",28347.416,6.00,6,0.100,266258.000,0.200,31272.000,0.300,2365.000,0.500,1168.000,1.000,362.000,5.000,0
"04/04/08","21:13:40",364450.000,"cc",28282.871,6.00,6,0.100,316713.000,0.200,43611.000,0.300,2733.000,0.500,1077.000,1.000,316.000,5.000,0
"04/04/08","21:13:46",323553.000,"cc",28263.951,6.00,6,0.100,283484.000,0.200,36100.000,0.300,2438.000,0.500,1148.000,1.000,383.000,5.000,0
"04/04/08","21:13:52",195632.000,"cc",28370.385,6.00,6,0.100,174058.000,0.200,18390.000,0.300,1709.000,0.500,1111.000,1.000,364.000,5.000,0
"04/04/08","21:13:58",187735.000,"cc",28253.232,6.00,6,0.100,167350.000,0.200,17318.000,0.300,1691.000,0.500,1038.000,1.000,338.000,5.000,0
"04/04/08","21:14:04",350675.000,"cc",28296.990,6.00,6,0.100,302783.000,0.200,43214.000,0.300,3004.000,0.500,1236.000,1.000,438.000,5.000,0
"04/04/08","21:14:10",199029.000,"cc",28333.426,6.00,6,0.100,174724.000,0.200,20027.000,0.300,2346.000,0.500,1442.000,1.000,490.000,5.000,0
"04/04/08","21:14:16",198028.000,"cc",28346.406,6.00,6,0.100,175283.000,0.200,18807.000,0.300,2151.000,0.500,1357.000,1.000,430.000,5.000,0
"04/04/08","21:14:22",194148.000,"cc",28307.930,6.00,6,0.100,171745.000,0.200,18655.000,0.300,2067.000,0.500,1253.000,1.000,428.000,5.000,0
"04/04/08","21:14:28",124259.000,"cc",28366.283,6.00,6,0.100,109098.000,0.200,11199.000,0.300,1930.000,0.500,1519.000,1.000,513.000,5.000,0
"04/04/08","21:14:34",105075.000,"cc",28301.416,6.00,6,0.100,92736.000,0.200,8895.000,0.300,1705.000,0.500,1330.000,1.000,409.000,5.000,0
"04/04/08","21:14:40",155821.000,"cc",28271.455,6.00,6,0.100,135747.000,0.200,14804.000,0.300,2601.000,0.500,1958.000,1.000,711.000,5.000,0
"04/04/08","21:14:46",179849.000,"cc",28287.965,6.00,6,0.100,156650.000,0.200,17994.000,0.300,2667.000,0.500,1856.000,1.000,682.000,5.000,0
"04/04/08","21:14:52",145650.000,"cc",28354.981,6.00,6,0.100,126154.000,0.200,14331.000,0.300,2552.000,0.500,1951.000,1.000,662.000,5.000,0
"04/04/08","21:14:58",133801.000,"cc",28336.383,6.00,6,0.100,117894.000,0.200,12449.000,0.300,1741.000,0.500,1290.000,1.000,427.000,5.000,0
"04/04/08","21:15:04",152034.000,"cc",28291.371,6.00,6,0.100,134296.000,0.200,14572.000,0.300,1666.000,0.500,1126.000,1.000,374.000,5.000,0
"04/04/08","21:15:10",183540.000,"cc",28393.223,6.00,6,0.100,160616.000,0.200,18787.000,0.300,2252.000,0.500,1430.000,1.000,455.000,5.000,0
"04/04/08","21:15:16",139645.000,"cc",28259.424,6.00,6,0.100,123687.000,0.200,12906.000,0.300,1546.000,0.500,1105.000,1.000,401.000,5.000,0
"04/04/08","21:15:22",139479.000,"cc",28261.482,6.00,6,0.100,123152.000,0.200,13109.000,0.300,1676.000,0.500,1189.000,1.000,353.000,5.000,0
"04/04/08","21:15:28",114258.000,"cc",28268.199,6.00,6,0.100,100131.000,0.200,10552.000,0.300,1791.000,0.500,1347.000,1.000,437.000,5.000,0
"04/04/08","21:15:34",105681.000,"cc",28380.047,6.00,6,0.100,92294.000,0.200,9695.000,0.300,1870.000,0.500,1392.000,1.000,430.000,5.000,0
"04/04/08","21:15:40",83143.000,"cc",28339.930,6.00,6,0.100,73326.000,0.200,6885.000,0.300,1441.000,0.500,1111.000,1.000,380.000,5.000,0
"04/04/08","21:15:46",112696.000,"cc",28262.742,6.00,6,0.100,98395.000,0.200,10450.000,0.300,1962.000,0.500,1425.000,1.000,464.000,5.000,0
"04/04/08","21:15:52",119284.000,"cc",28303.746,6.00,6,0.100,104636.000,0.200,11122.000,0.300,1849.000,0.500,1280.000,1.000,397.000,5.000,0
"04/04/08","21:15:58",115547.000,"cc",28331.982,6.00,6,0.100,100814.000,0.200,10873.000,0.300,1953.000,0.500,1426.000,1.000,481.000,5.000,0
"04/04/08","21:16:04",115123.000,"cc",28341.639,6.00,6,0.100,100628.000,0.200,10680.000,0.300,1909.000,0.500,1424.000,1.000,482.000,5.000,0
"04/04/08","21:16:10",115190.000,"cc",28342.613,6.00,6,0.100,101905.000,0.200,10444.000,0.300,1377.000,0.500,1077.000,1.000,387.000,5.000,0